Regional Weather Roundup
Issued by NWS

Home | Current Version | Previous Version | Text Only | Print | Product List | Glossary Off
Versions: 1 2 3 4 5 6 7 8 9 10 11 12 13 14 15 16 17 18 19 20 21 22 23 24 25 26 27 28 29 30 31 32 33 34 35 36 37 38 39 40 41 42 43 44 45 46 47 48 49 50

000
ASUS43 KFSD 250002
RWRSD

WEATHER ROUNDUP FOR SOUTH DAKOTA
NATIONAL WEATHER SERVICE SIOUX FALLS SD
700 PM CDT THU JUL 24 2014

NOTE: "FAIR" INDICATES FEW OR NO CLOUDS BELOW 12,000 FEET WITH NO
SIGNIFICANT WEATHER AND/OR OBSTRUCTIONS TO VISIBILITY.


SDZ001>005-009-010-012>017-250100-
NORTHWEST AND NORTH CENTRAL SOUTH DAKOTA

CITY           SKY/WX    TMP DP  RH WIND       PRES   REMARKS
BUFFALO          N/A     84  68  58 E12       29.62F
FAITH            N/A     90  69  50 E8        29.67F
MOBRIDGE       MOSUNNY   82  68  62 E21G28    29.68R
$$

SDZ012>016-024>037-041>051-057-063-072>074-250100-
SOUTHWEST AND SOUTH CENTRAL SOUTH DAKOTA

CITY           SKY/WX    TMP DP  RH WIND       PRES   REMARKS
RAPID CTY ARPT PTSUNNY   88  72  58 SW5       29.72F
PIERRE         MOSUNNY   91  70  49 SE25G36   29.61F HX  96
CUSTER         PTSUNNY   87  37  17 SW8       29.94F
ELLSWORTH AFB  PTSUNNY   90  70  51 SW5       29.72F HX  95
PHILIP         MOSUNNY  104  55  19 SE7       29.63F HX 102
PINE RIDGE     CLOUDY    86  52  30 SW8       29.78F
WINNER         FAIR      96  69  41 S20G32    29.68S HX 102
$$

SDZ004>011-016>023-039-040-250100-
NORTHEAST SOUTH DAKOTA

CITY           SKY/WX    TMP DP  RH WIND       PRES   REMARKS
ABERDEEN       SUNNY     75  62  64 S23G32    29.78F
WATERTOWN      MOSUNNY   71  60  68 S15G25    29.84F
SISSETON         N/A     71  64  78 S13       29.83F
$$

SDZ017-020-022-023-036>040-048>070-250100-
SOUTHEAST SOUTH DAKOTA

CITY           SKY/WX    TMP DP  RH WIND       PRES   REMARKS
SIOUX FALLS    MOSUNNY   72  61  68 S16G24    29.89F
HURON          SUNNY     76  63  64 SE24G40   29.75F
CHAMBERLAIN    SUNNY     87  70  56 SE22G37   29.69F
MITCHELL       SUNNY     78  65  63 SE25G40   29.79F
YANKTON        PTSUNNY   77  64  65 SE17G29   29.87F
$$

ABBREVIATIONS USED IN REMARKS
   TC - TEMPERATURE IN CELSIUS
  WCI - WIND CHILL INDEX
   HX - HEAT INDEX
  VSB - VISIBILITY




USA.gov is the U.S. government's official web portal to all federal, state and local government web resources and services.